Regional Weather Roundup
Issued by NWS

Home | Current Version | Previous Version | Text Only | Print | Product List | Glossary On
Versions: 1 2 3 4 5 6 7 8 9 10 11 12 13 14 15 16 17 18 19 20 21 22 23 24 25 26 27 28 29 30 31 32 33 34 35 36 37 38 39 40 41 42 43 44 45 46 47 48 49 50
000
ASUS46 KLOX 280112
RWRCA

SOUTHERN CALIFORNIA WEATHER ROUNDUP
NATIONAL WEATHER SERVICE OXNARD CALIFORNIA
500 PM PST SAT DEC 27 2014

NOTE: "FAIR" INDICATES FEW OR NO CLOUDS BELOW 12,000 FEET WITH NO
SIGNIFICANT WEATHER AND/OR OBSTRUCTIONS TO VISIBILITY.

  -  STATIONS PRECEEDED BY AN ASTERISK (*) ARE NOT NWS OR FAA
     STATIONS AND ARE NOT SUBJECT TO NWS AND FAA QUALITY CONTROL.

CAZ041-042-087-280200-
LA AND ORANGE COUNTY COASTAL AREAS


CITY           SKY/WX    TMP DP  RH WIND       PRES   REMARKS
L.A. DOWNTOWN  PTCLDY    57  32  38 W3        30.29R
L.A. AIRPORT   PTCLDY    56  34  43 SW7       30.29F
LONG BEACH     PTCLDY    57  28  33 NW8       30.29S

CITY           SKY/WX    TMP DP  RH WIND       PRES   REMARKS
AVALON           N/A     50 N/A N/A MISG        N/A
FULLERTON      PTCLDY    59  17  19 W3        30.28S
*GETTY CENTER    N/A     54  25  32 SW7         N/A
HAWTHORNE      PTCLDY    59  34  39 SW5       30.30S
*LEO CARRILLO    N/A     58  27  30 CALM        N/A
*LOS ALAMITOS  FAIR      56  29  34 W5        30.29R
*REDONDO BEACH   N/A     57  35  44 CALM      30.29S
SANTA ANA      PTCLDY    62  21  20 NW7       30.29R
STA MONICA APT PTCLDY    58  29  33 SW5       30.29F
TORRANCE       PTCLDY    57  32  38 VRB7      30.30
*UCLA            N/A     55  28  35 SW8       30.27R

$$

CAZ547-548-048-280200-
LA COUNTY VALLEYS AND INLAND EMPIRE


CITY           SKY/WX    TMP DP  RH WIND       PRES   REMARKS
BURBANK        PTCLDY    56  27  32 SE6       30.28R
VAN NUYS       PTCLDY    54  15  21 N10       30.27S

CITY           SKY/WX    TMP DP  RH WIND       PRES   REMARKS
CORONA AIRPORT PTCLDY    52  24  33 CALM      30.29R
*CHATSWORTH      N/A     54  17  23 NW2       30.28S
CHINO          PTCLDY    50  27  40 W5        30.29R
*CLAREMONT       N/A     48  19  31 NW3         N/A
MARCH AFB      PTCLDY    51  16  25 CALM      30.28R
*NORTHRIDGE      N/A     54   7  15 NW6G13      N/A
ONTARIO        PTCLDY    55  18  23 W5        30.28R
*PASADENA        N/A     55  27  33 E2          N/A
POMONA         CLEAR     50  23  34 SW6       30.31R
RIVERSIDE      PTCLDY    56   9  15 N6        30.29R
SAN BERNARDINO CLEAR    N/A N/A N/A NW5       30.28R
*SAN GABRIEL     N/A     60  19  20 CALM      30.26R
*SAN RAFAEL HI   N/A     50   9  19 E7          N/A
*SAUGUS          N/A     53   9  17 NE14        N/A
*WHITEMAN AP   CLEAR    N/A N/A N/A SE6       30.31R
*WOODLAND HILL   N/A     54  12  19 NW3         N/A

$$

CAZ054-055-280200-
LA AND SAN BERNARDINO COUNTY MOUNTAINS


CITY           SKY/WX    TMP DP  RH WIND       PRES   REMARKS
*ACTON           N/A     47   9  21 N12G25      N/A
*BIG BEAR AIRP PTCLDY    32   0  25 CALM      30.25R
*BIG PINES       N/A     33 -14  12 CALM        N/A
MT WILSON NWS    N/A     37  14  38 N6          N/A  WCI  33
SANDBERG       PTCLDY    35   9  33 NE12      30.29S WCI  27

$$

CAZ028-029-059-060-099-280200-
ANTELOPE VALLEY AND SURROUNDING AREAS


CITY           SKY/WX    TMP DP  RH WIND       PRES   REMARKS
LANCASTER      PTCLDY    41  17  38 NE3       30.34S
PALMDALE       PTCLDY    43  13  29 NE5       30.32F
*POPPY PARK      N/A     39  19  43 NE3         N/A

CITY           SKY/WX    TMP DP  RH WIND       PRES   REMARKS
29 PALMS       PTCLDY    45   9  23 W6        30.39S
BARSTOW/DAGGET CLEAR     44   8  23 E5        30.34S
BISHOP         PTCLDY    36   4  26 S3        30.28R
CHINA LAKE     PTCLDY    43  14  31 N6        30.33S
EDWARDS AFB    MOCLDY    43  18  36 N5        30.31S
MOJAVE         FAIR      41  10  28 CALM      30.33F
NEEDLES        CLEAR     50  11  20 N5        30.34R
VICTORVILLE    PTCLDY    39  10  30 N6        30.33R WCI  35

$$

CAZ039-040-280200-
VENTURA AND SANTA BARBARA COUNTY COAST


CITY           SKY/WX    TMP DP  RH WIND       PRES   REMARKS
CAMARILLO      PTCLDY    57  18  21 E5        30.30R
NWS OXNARD       N/A     58  33  39 CALM      30.30R
OXNARD AIRPORT PTCLDY    57  37  47 NW9       30.30R
*POINT MUGU    PTCLDY    59  31  34 NW6       30.31R
SBA APT/GOLETA PTCLDY    55  32  41 W6        30.30S
*SANTA BARBARA   N/A     58  31  35 CALM      30.39R
*VENTURA         N/A     58  29  32 CALM      30.35S

$$

CAZ044-045-280200-
VENTURA COUNTY VALLEYS


CITY           SKY/WX    TMP DP  RH WIND       PRES   REMARKS
*OJAI            N/A     51  34  52 CALM      30.30R
*FILLMORE        N/A     55  28  35 CALM      30.20R

$$

CAZ053-280200-
VENTURA COUNTY MOUNTAINS


CITY           SKY/WX    TMP DP  RH WIND       PRES   REMARKS
*LOCKWOOD VLY    N/A     36  18  48 MISG        N/A
*ROSE VALLEY     N/A     43  27  52 MISG        N/A

$$

CAZ034-035-036-280200-
CENTRAL COAST AND SANTA YNEZ VALLEY


CITY           SKY/WX    TMP DP  RH WIND       PRES   REMARKS
SAN LUIS OBISP PTCLDY    55  39  54 CALM      30.32R
SANTA MARIA    PTCLDY    55  39  54 N7        30.32S

CITY           SKY/WX    TMP DP  RH WIND       PRES   REMARKS
*CAL POLY SLO    N/A     59  43  55 SW1G13      N/A
*LOMPOC        PTCLDY    57  32  38 NW5       30.32R
*PISMO BEACH     N/A     57  41  54 SW1       30.33R
*SANTA YNEZ    FAIR      52  32  46 W3        30.30F

$$

CAZ037-038-051-280200-
SAN LUIS OBISPO COUNTY INTERIOR AND CUYAMA VALLEY


CITY           SKY/WX    TMP DP  RH WIND       PRES   REMARKS
*CUYAMA          N/A     49  31  51 CALM      30.34R
PASO ROBLES    PTCLDY    53  39  59 SW3       30.31S

$$

CAZ032-033-061-280200-
SOUTHERN DESERTS


CITY           SKY/WX    TMP DP  RH WIND       PRES   REMARKS
BLYTHE         PTCLDY    54  12  18 N8        30.32R
IMPERIAL       PTCLDY    55  16  21 NW5       30.32R
PALM SPRINGS   PTCLDY    56  13  18 W3        30.33S
THERMAL        PTCLDY    50  10  20 CALM      30.31S

$$

ELSEWHERE ACROSS THE WESTERN UNITED STATES AND MEXICO


CITY           SKY/WX    TMP DP  RH WIND       PRES   REMARKS
DENVER, CO     MOCLDY    16   9  74 S12       30.04S WCI   3
GRAND CANYON,  PTCLDY    22  11  62 CALM      30.26R
HONOLULU, HI   MOSUNNY   79  57  47 NW17G23   29.82S
KAHULUI, MAUI  MOSUNNY   77  59  53 N21G29    29.82R
LAKE TAHOE, CA MOCLDY    33  20  58 CALM      30.24R
LAS VEGAS, NV  PTCLDY    44   6  21 SE6       30.31S
MAMMOTH LAKES, FAIR      27   3  36 SE5       30.23S WCI  21
MEXICO CITY, M PTCLDY    68  37  32 S2        30.28R
PHOENIX, AZ    PTCLDY    55  16  21 W9        30.24S
PORTLAND, OR   CLOUDY    44  42  93 S9        30.18F
RENO, NV       MOCLDY    37  14  38 CALM      30.26R
SALT LAKE CITY CLOUDY    25  15  66 S7        30.32S WCI  17
SAN DIEGO, CA  PTCLDY    59  30  33 NW5       30.30R
SAN FRANCISCO, MOCLDY    54  35  48 CALM      30.34R
SAN JOSE, CA   MOCLDY    52  32  46 N3        30.33S
SEATTLE, WA    MOCLDY    47  41  80 SW8       30.06R
TIJUANA, MEX   PTCLDY    55  25  30 NW8       30.29R

$$

STATION/POSITION TIME  TEMP    WIND        PRES    VSBY  WAVE
                       AIR SEA DIR/SP/G                  HT/PER
                 (UTC) (F)     (DEG/KT/KT) (MB)    (MI)  (FT/S)
POINT ARGUELLO B NOT AVBL
WEST SANTA BARBA 0100   59 61  140/  2/  4 1025.9R         5/11
POINT CONCEPTION NOT AVBL
EAST SANTA BARBA NOT AVBL
SANTA MONICA BAY 0100   58 63  260/  8/ 10 1026.3R         2/12


USA.gov is the U.S. government's official web portal to all federal, state and local government web resources and services.